Tracking 19245 objects as of 17-Aug-2018
HD Live streaming from Space Station
objects crossing your sky now

COSMOS 385

Track COSMOS 385 now!
10-day predictions
COSMOS 385 is classified as:


NORAD ID: 4799
Int'l Code: 1970-108A
Perigee: 979.3 km
Apogee: 985.8 km
Inclination: 74.0 °
Period: 104.6 minutes
Semi major axis: 7353 km
RCS: 3.9806 m2 (large)
Launch date: December 12, 1970
Source: Commonwealth of Independent States (former USSR) (CIS)
Launch site: PLESETSK MISSILE AND SPACE COMPLEX (PKMTR)
aabbcc
Your satellite tracking list
Your tracking list is empty




NASA's NSSDC Master Catalog

Two Line Element Set (TLE):
1 04799U 70108A   18229.13885779 -.00000010  00000-0  13104-4 0  9990
2 04799  74.0213 115.3626 0004401 311.8474 156.3328 13.76762148395425
Source of the keplerian elements: AFSPC